Вернуться в каталог

CARTOSAT 2E

АктивенНаукаSSO
NORAD 42767·PAYLOAD·🇮🇳 India

Запущен Jun 23, 2017 с Satish Dhawan Space Centre

Loading…

Ближайшие Пролёты (ближайшие 24 часа)

TLE

СвежийSource: Space-Track

Эпоха: Sep 14, 2026, 14:51 UTC

1 42767U 17036C   26257.61904252  .00003235  00000-0  15662-3 0  9990
2 42767  97.4183 315.9006 0003541  23.0744 337.0649 15.19273515511724

Отслеживайте CARTOSAT 2E в реальном времени с AllMySat

Download on the App Store